Weather History for KCDD - February, 2014

Change the Weather History Date:

Tuesday, February 4, 2014

  Actual Average Record
Temperature  
Mean Temperature -7 °F -  
Max Temperature 6 °F 22 °F 44 °F (2005)
Min Temperature -20 °F 1 °F -34 °F (2013)
Degree Days  
Heating Degree Days 72    
Moisture  
Dew Point -16 °F    
Average Humidity 70    
Maximum Humidity 85    
Minimum Humidity 55    
Precipitation  
Precipitation 0.00 in - - ()
Sea Level Pressure  
Sea Level Pressure 30.42 in    
Wind  
Wind Speed 2 mph (NNW)    
Max Wind Speed 8 mph    
Max Gust Speed -    
Visibility 9 miles    
Events Snow    
Averages and records for this station are not official NWS values.
T = Trace of Precipitation, MM = Missing Value Source: NWS Daily Summary

Daily Weather History Graph

Daily Weather History Graph

Search for Another Location

Airport or City:

Trip Planner

Search our weather history database for the weather conditions in past years. The results will help you decide how hot, cold, wet, or windy it might be!

Date:

Astronomy

Feb. 04, 2014 Rise Set
Actual Time 7:34 AM CST 5:14 PM CST
Civil Twilight 7:00 AM CST 5:47 PM CST
Nautical Twilight 6:23 AM CST 6:24 PM CST
Astronomical Twilight 5:47 AM CST 7:01 PM CST
Moon 9:43 AM CST (2/4) 11:40 PM CST (2/4)
Length of Visible Light 10h 46m
Length of Day
9h 40m
Waxing Crescent, 29% of the Moon is Illuminated
Feb 4
Waxing Crescent
Feb 6
First Quarter
Feb 14
Full
Feb 22
Last Quarter
Mar 1
New

Hourly Weather History & Observations

Time (CST) Temp. Windchill Dew Point Humidity Pressure Visibility Wind Dir Wind Speed Gust Speed Precip Events Conditions
12:00 AM -14.8 °F - -20.2 °F 77% 30.28 in 10.0 mi Calm Calm - N/A   Clear
12:22 AM -16.6 °F - -22.0 °F 76% 30.28 in 10.0 mi Calm Calm - N/A   Clear
12:40 AM -16.6 °F - -22.0 °F 76% 30.28 in 10.0 mi Calm Calm - N/A   Clear
1:00 AM -18.4 °F - -23.8 °F 76% 30.29 in 10.0 mi Calm Calm - N/A   Clear
1:21 AM -18.4 °F - -23.8 °F 76% 30.30 in 10.0 mi Calm Calm - N/A   Clear
1:41 AM -18.4 °F - -23.8 °F 76% 30.30 in 10.0 mi Calm Calm - N/A   Clear
2:00 AM -18.4 °F - -22.0 °F 84% 30.30 in 4.0 mi Calm Calm - N/A Snow Light Snow
2:20 AM -14.8 °F - -20.2 °F 77% 30.31 in 10.0 mi Calm Calm - N/A   Overcast
2:41 AM -13.0 °F - -18.4 °F 77% 30.31 in 10.0 mi Calm Calm - N/A   Overcast
3:01 AM -11.2 °F - -16.6 °F 77% 30.31 in 10.0 mi Calm Calm - N/A   Overcast
3:21 AM -11.2 °F - -16.6 °F 77% 30.32 in 10.0 mi Calm Calm - N/A   Overcast
3:41 AM -11.2 °F - -14.8 °F 84% 30.33 in 1.8 mi Calm Calm - N/A Snow Light Snow
4:00 AM -9.4 °F - -14.8 °F 77% 30.33 in 2.0 mi Calm Calm - N/A Snow Light Snow
4:20 AM -9.4 °F - -14.8 °F 77% 30.34 in 2.0 mi Calm Calm - N/A Snow Light Snow
4:40 AM -9.4 °F - -14.8 °F 77% 30.34 in 5.0 mi Calm Calm - N/A Snow Light Snow
5:00 AM -11.2 °F - -16.6 °F 77% 30.35 in 5.0 mi Calm Calm - N/A Snow Light Snow
5:21 AM -11.2 °F - -16.6 °F 77% 30.35 in 7.0 mi Calm Calm - N/A Snow Light Snow
5:41 AM -13.0 °F - -18.4 °F 77% 30.36 in 3.0 mi Calm Calm - N/A Snow Light Snow
6:01 AM -13.0 °F - -16.6 °F 84% 30.36 in 3.0 mi Calm Calm - N/A Snow Light Snow
6:20 AM -13.0 °F - -18.4 °F 77% 30.36 in 2.5 mi Calm Calm - N/A Snow Light Snow
6:40 AM -14.8 °F - -20.2 °F 77% 30.37 in 7.0 mi Calm Calm - N/A Snow Light Snow
7:00 AM -14.8 °F - -20.2 °F 77% 30.37 in 10.0 mi Calm Calm - N/A Snow Light Snow
7:20 AM -16.6 °F - -20.2 °F 84% 30.38 in 10.0 mi Calm Calm - N/A   Mostly Cloudy
7:40 AM -18.4 °F - -22.0 °F 84% 30.39 in 10.0 mi Calm Calm - N/A   Scattered Clouds
8:00 AM -16.6 °F - -20.2 °F 84% 30.40 in 10.0 mi Calm Calm - N/A   Overcast
8:20 AM -14.8 °F - -18.4 °F 84% 30.42 in 10.0 mi Calm Calm - N/A   Overcast
8:40 AM -11.2 °F - -14.8 °F 84% 30.42 in 10.0 mi Calm Calm - N/A   Overcast
9:00 AM -9.4 °F - -13.0 °F 84% 30.43 in 10.0 mi Calm Calm - N/A   Overcast
9:20 AM -2.2 °F -10.4 °F -5.8 °F 85% 30.43 in 10.0 mi NW 3.5 mph - N/A   Overcast
9:40 AM -0.4 °F -8.3 °F -5.8 °F 78% 30.44 in 10.0 mi NW 3.5 mph - N/A   Scattered Clouds
10:01 AM 3.2 °F -7.8 °F -2.2 °F 78% 30.45 in 10.0 mi North 5.8 mph - N/A   Scattered Clouds
10:20 AM 5.0 °F -8.1 °F -2.2 °F 72% 30.45 in 10.0 mi North 8.1 mph - N/A   Mostly Cloudy
10:40 AM 3.2 °F -7.8 °F -5.8 °F 66% 30.45 in 10.0 mi NNW 5.8 mph - N/A   Mostly Cloudy
11:14 AM 5.0 °F -8.1 °F -4.0 °F 66% 30.45 in 10.0 mi North 8.1 mph - N/A   Unknown
11:33 AM 5.0 °F -8.1 °F -5.8 °F 61% 30.45 in 10.0 mi NW 8.1 mph - N/A   Mostly Cloudy
11:53 AM 3.2 °F -10.3 °F -5.8 °F 66% 30.45 in 10.0 mi NW 8.1 mph - N/A   Mostly Cloudy
12:14 PM 6.8 °F -3.5 °F -5.8 °F 56% 30.45 in 7.0 mi North 5.8 mph - N/A   Mostly Cloudy
12:33 PM 5.0 °F -6.9 °F -7.6 °F 56% 30.45 in 10.0 mi NW 6.9 mph - N/A   Overcast
12:53 PM 3.2 °F -9.1 °F -7.6 °F 61% 30.44 in 10.0 mi NW 6.9 mph - N/A   Overcast
1:14 PM 5.0 °F -8.1 °F -7.6 °F 56% 30.44 in 10.0 mi NW 8.1 mph - N/A   Overcast
1:33 PM 5.0 °F -5.6 °F -7.6 °F 56% 30.45 in 10.0 mi NW 5.8 mph - N/A   Overcast
1:54 PM 3.2 °F -10.3 °F -9.4 °F 56% 30.45 in 10.0 mi NW 8.1 mph - N/A   Overcast
2:13 PM 3.2 °F -7.8 °F -9.4 °F 56% 30.45 in 10.0 mi NNW 5.8 mph - N/A   Overcast
2:33 PM 1.4 °F -11.3 °F -9.4 °F 61% 30.45 in 10.0 mi NW 6.9 mph - N/A   Overcast
2:53 PM 1.4 °F -12.5 °F -9.4 °F 61% 30.45 in 10.0 mi NNW 8.1 mph - N/A   Overcast
3:14 PM 1.4 °F -11.3 °F -9.4 °F 61% 30.46 in 10.0 mi NNW 6.9 mph - N/A   Overcast
3:33 PM 1.4 °F -11.3 °F -9.4 °F 61% 30.47 in 10.0 mi NW 6.9 mph - N/A   Overcast
3:53 PM 1.4 °F -11.3 °F -11.2 °F 56% 30.47 in 10.0 mi NNW 6.9 mph - N/A   Overcast
4:13 PM -0.4 °F -8.3 °F -11.2 °F 60% 30.48 in 10.0 mi North 3.5 mph - N/A   Overcast
4:34 PM -0.4 °F -8.3 °F -11.2 °F 60% 30.49 in 10.0 mi North 3.5 mph - N/A   Overcast
4:53 PM -2.2 °F -14.2 °F -13.0 °F 60% 30.49 in 10.0 mi NNW 5.8 mph - N/A   Overcast
5:13 PM -2.2 °F -12.5 °F -13.0 °F 60% 30.50 in 10.0 mi NNW 4.6 mph - N/A   Overcast
5:33 PM -2.2 °F -10.4 °F -13.0 °F 60% 30.50 in 10.0 mi NNW 3.5 mph - N/A   Overcast
5:53 PM -2.2 °F -10.4 °F -14.8 °F 55% 30.49 in 10.0 mi NNW 3.5 mph - N/A   Overcast
6:13 PM -4.0 °F -12.4 °F -14.8 °F 60% 30.50 in 10.0 mi NW 3.5 mph - N/A   Overcast
6:33 PM -5.8 °F - -14.8 °F 65% 30.50 in 10.0 mi Calm Calm - N/A   Overcast
6:53 PM -7.6 °F - -18.4 °F 59% 30.50 in 10.0 mi Calm Calm - N/A   Overcast
7:13 PM -9.4 °F - -18.4 °F 65% 30.49 in 10.0 mi Calm Calm - N/A   Overcast
7:34 PM -11.2 °F - -20.2 °F 64% 30.49 in 10.0 mi Calm Calm - N/A   Mostly Cloudy
7:53 PM -13.0 °F - -22.0 °F 64% 30.49 in 10.0 mi Calm Calm - N/A   Clear
8:13 PM -14.8 °F - -23.8 °F 64% 30.48 in 10.0 mi Calm Calm - N/A   Clear
8:33 PM -16.6 °F - -25.6 °F 64% 30.48 in 10.0 mi Calm Calm - N/A   Clear
8:53 PM -18.4 °F - -25.6 °F 70% 30.48 in 10.0 mi Calm Calm - N/A   Clear
9:13 PM -18.4 °F - -27.4 °F 63% 30.48 in 10.0 mi Calm Calm - N/A   Clear
9:33 PM -20.2 °F - -27.4 °F 69% 30.49 in 10.0 mi Calm Calm - N/A   Clear
9:53 PM -20.2 °F - -27.4 °F 69% 30.48 in 10.0 mi Calm Calm - N/A   Clear
10:13 PM -20.2 °F - -29.2 °F 63% 30.49 in 10.0 mi Calm Calm - N/A   Clear
10:33 PM -20.2 °F - -29.2 °F 63% 30.49 in 10.0 mi Calm Calm - N/A   Clear
10:53 PM -20.2 °F - -27.4 °F 69% 30.49 in 10.0 mi Calm Calm - N/A   Mostly Cloudy
11:14 PM -20.2 °F - -27.4 °F 69% 30.49 in 10.0 mi Calm Calm - N/A   Overcast
11:33 PM -18.4 °F - -25.6 °F 70% 30.49 in 10.0 mi Calm Calm - N/A   Overcast
11:53 PM -18.4 °F - -25.6 °F 70% 30.49 in 10.0 mi Calm Calm - N/A   Overcast